Location: Goettingen
(51.5300°N, 9.9433°E)
Time: 11:32:43
(UTC+01:00)

ISS - Pass Details

Date: 20 March 2023
Orbit: 414 x 423 km, 51.6° (Epoch: 20 March)

Event Time Altitude Azimuth Distance (km) Brightness Sun altitude
Rises 21:50:46 0° 274° (W) 2,357 0.8 -28.8°
Reaches altitude 10° 21:52:51 10° 275° (W) 1,493 -0.4 -29.0°
Enters shadow 21:53:05 12° 275° (W) 1,400 -0.6 -29.1°
